[[{"header":{"parameterUnit":"m.s-1","parameterCategory":1,"la1":30.2991,"la2":30.254,"lo1":-89.0895,"lo2":-89.0444,"dy":0.0017,"dx":0.0017,"nx":28,"ny":28,"refTime":"2024-06-30T09:00:00:Z","depth":0,"parameterNumber":2,"parameterNumberName":"U-component_of_WINDS"},"data":[0,0,0,0,0,0,0,0,0,0,0,0,0,0,0,0,0,0,0,0,0,0,0,0,0,0,0,0,0,0,0,0,0,0,0,0,0,0,0,0,0,0,0,0,0,0,0,0,0,0,0,0,0,0,0,0,0,0,2.7134,2.7134,0,2.7152,2.7152,2.7152,2.7072,2.707,2.7068,2.7065,2.7083,2.7085,2.7088,0,0,0,0,0,0,0,0,0,0,0,0,0,2.7029,2.7032,2.7134,2.7134,2.7134,2.7152,2.7152,2.7152,2.7073,2.707,2.7067,2.7064,2.7082,2.7085,2.7088,0,0,0,0,0,0,0,0,0,0,0,0,0,2.7064,2.7032,2.7134,2.7097,2.7094,2.7152,2.7152,2.7152,2.7073,2.707,2.7066,2.7063,2.7081,2.7085,2.7089,2.7183,0,0,2.7101,2.7102,0,0,0,0,0,0,0,0,2.7062,2.7068,2.7102,2.71,2.7096,2.7106,2.7121,2.7163,2.7074,2.7081,2.7065,2.7061,2.7093,2.7096,2.7107,2.7184,2.7184,2.7101,2.7103,2.7105,2.7106,0,0,0,0,0,0,0,2.706,2.7066,2.7141,2.7103,2.7099,2.7079,2.708,2.7129,2.7107,2.708,2.7074,2.7078,2.7091,2.7103,2.7107,2.7185,2.7101,2.7104,2.7107,2.7108,2.7337,2.734,0,0,0,0,0,0,2.7062,2.7065,2.714,2.7141,2.707,2.7083,2.7085,2.7106,2.7106,2.7102,2.7081,2.7074,2.7098,2.7102,2.7107,2.7215,2.7105,2.7109,2.7111,2.7333,2.7337,2.7341,0,0,0,0,0,0,2.706,2.707,2.714,2.7102,2.7109,2.7089,2.7114,2.7109,2.7121,2.7106,2.7102,2.7097,2.7096,2.7102,2.7164,2.7214,2.7111,2.7114,2.7329,2.7334,2.7339,2.7433,0,0,0,0,0,0,2.7058,2.707,2.7106,2.7103,2.7111,2.7197,2.7117,2.7112,2.7128,2.7119,2.7121,2.7118,2.7094,2.7159,2.7168,2.7218,2.7117,2.7324,2.7331,2.7338,2.7425,2.7441,2.7454,0,0,0,0,0,2.7054,2.7132,2.7108,2.7117,2.7156,2.72,2.7205,2.7176,2.7133,2.7168,2.7158,2.7117,2.7208,2.7166,2.7176,2.7227,2.7321,2.7329,2.7337,2.7418,2.7438,2.7454,0,0,0,0,0,0,2.7141,2.7131,2.7104,2.7183,2.7193,2.7187,2.723,2.7197,2.722,2.721,2.7173,2.7174,2.7243,2.7242,2.7195,2.7317,2.7257,2.7267,2.7315,2.7333,2.7347,2.7345,2.7121,0,0,0,0,0,2.7169,2.7206,2.7195,2.7266,2.7272,2.7251,2.7269,2.7246,2.7254,2.7258,2.7253,2.7262,2.7292,2.7313,2.7341,2.7425,2.7423,2.7466,2.748,2.7492,2.7501,2.7543,2.7561,2.7369,2.7369,2.7368,0,0,2.7228,2.7227,2.7253,2.7284,2.7288,2.7326,2.7255,2.7299,2.7326,2.7265,2.7322,2.7319,2.7327,2.74,2.7433,2.7402,2.7554,2.7503,2.7513,2.7515,2.7553,2.7572,2.7588,2.7374,2.7373,2.7372,0,0,2.7354,2.7358,2.7416,2.7422,2.743,2.7415,2.7429,2.7428,2.7423,2.7481,2.7434,2.7467,2.752,2.7527,2.7538,2.7665,2.7627,2.7675,2.775,2.7792,2.7807,2.782,2.7863,2.7879,2.7685,2.7685,2.7685,0,2.7425,2.7481,2.745,2.7496,2.751,2.7456,2.7514,2.7521,2.7538,2.7548,2.7514,2.7579,2.7581,2.7653,2.7684,2.7696,2.7709,2.7674,2.7807,2.782,2.7832,2.7872,2.7889,2.769,2.769,2.7689,2.7689,0,2.7567,2.7607,2.7653,2.7669,2.7689,2.7741,2.7716,2.774,2.7715,2.7703,2.7761,2.7762,2.7787,2.7803,2.778,2.7872,2.7852,2.7814,2.7751,2.7857,2.7893,2.7909,2.7698,2.7696,2.7695,2.7693,0,0,2.7747,2.7745,2.7762,2.7768,2.7773,2.7802,2.7851,2.7876,2.7895,2.7909,2.7947,2.7994,2.7957,2.7969,2.7946,2.7983,2.808,2.7939,2.7939,2.7963,2.8179,2.8206,2.8224,2.8057,2.806,2.8062,2.8177,0,2.7867,2.795,2.7923,2.8007,2.8041,2.7991,2.8033,2.804,2.8031,2.8058,2.8048,2.808,2.8031,2.8037,2.8072,2.8061,2.8123,2.8053,2.809,2.8092,2.8086,2.8244,2.8273,2.8382,2.8192,2.8194,2.8196,0,2.8019,2.8037,2.8124,2.8121,2.8134,2.8173,2.8192,2.822,2.8226,2.8217,2.823,2.8199,2.8245,2.8185,2.8248,2.8201,2.8215,2.8212,2.8215,2.8215,2.8148,2.8245,2.8416,2.8431,2.8219,2.8217,2.8215,0,2.8137,2.8184,2.8241,2.8248,2.8247,2.8275,2.8275,2.8279,2.8294,2.8312,2.8321,2.8344,2.8356,2.8373,2.8349,2.8308,2.8414,2.8352,2.8405,2.8406,2.8427,2.8426,2.86,2.8442,2.8442,2.8442,2.8441,0,2.8272,2.8327,2.8294,2.8329,2.8387,2.8356,2.8415,2.841,2.8413,2.8445,2.8404,2.8435,2.8403,2.843,2.8412,2.8465,2.8471,2.8464,2.8457,2.8465,2.8466,2.8472,2.8462,2.8446,2.8445,2.8444,2.8443,0,2.8413,2.8393,2.8452,2.8446,2.8445,2.8489,2.8483,2.8515,2.8502,2.8544,2.8552,2.8532,2.8563,2.8541,2.8572,2.8559,2.8628,2.8613,2.8625,2.862,2.8673,2.8667,2.8854,2.8875,2.8707,2.8709,2.871,0,2.8499,2.8539,2.8537,2.8556,2.8559,2.859,2.8605,2.8576,2.8594,2.8604,2.8634,2.8661,2.868,2.8731,2.872,2.8743,2.8726,2.879,2.8729,2.8735,2.8723,2.8719,2.8722,2.8801,2.8803,2.8805,2.8806,0,2.8653,2.8641,2.8665,2.8686,2.8705,2.872,2.8732,2.8749,2.8719,2.8742,2.8772,2.8787,2.8818,2.8845,2.8863,2.8863,2.8829,2.8826,2.8838,2.8846,2.885,2.8845,2.8655,2.8821,2.8819,2.8818,2.8817,2.8817,2.8766,2.8799,2.8802,2.8829,2.8835,2.8847,2.8875,2.8866,2.8891,2.8913,2.8895,2.8931,2.8935,2.8956,2.8961,2.8988,2.8961,2.8981,2.8985,2.8989,2.8995,2.8848,2.8991,2.8991,2.899,2.899,2.899,0,2.8915,2.8914,2.894,2.8957,2.8979,2.8946,2.8957,2.8977,2.9009,2.9016,2.9036,2.907,2.9095,2.9086,2.9108,2.9131,2.9116,2.9138,2.9134,2.9134,2.9019,2.9004,2.915,2.915,2.915,2.915,2.9149,2.9149,2.8995,2.9047,2.9035,2.9089,2.9088,2.9123,2.9131,2.9141,2.9146,2.9186,2.9207,2.9201,2.9201,2.9222,2.9244,2.924,2.9249,2.9276,2.9267,2.9159,2.9143,2.9128,2.9113,2.9279,2.9279,2.9379,2.938,2.938]},{"header":{"parameterUnit":"m.s-1","parameterCategory":1,"la1":30.2991,"la2":30.254,"lo1":-89.0895,"lo2":-89.0444,"dy":0.0017,"dx":0.0017,"nx":28,"ny":28,"refTime":"2024-06-30T09:00:00:Z","depth":0,"parameterNumber":3,"parameterNumberName":"V-component_of_WINDS"},"data":[0,0,0,0,0,0,0,0,0,0,0,0,0,0,0,0,0,0,0,0,0,0,0,0,0,0,0,0,0,0,0,0,0,0,0,0,0,0,0,0,0,0,0,0,0,0,0,0,0,0,0,0,0,0,0,0,0,0,3.4852,3.4854,0,3.4985,3.4986,3.4988,3.4945,3.4942,3.4939,3.4936,3.5068,3.5074,3.508,0,0,0,0,0,0,0,0,0,0,0,0,0,3.4557,3.4563,3.4852,3.4854,3.4856,3.4985,3.4986,3.4988,3.4945,3.4942,3.4938,3.4935,3.5066,3.5073,3.508,0,0,0,0,0,0,0,0,0,0,0,0,0,3.4687,3.4565,3.4852,3.485,3.4851,3.4984,3.4986,3.4989,3.4946,3.4942,3.4937,3.4933,3.5063,3.5072,3.5081,3.5224,0,0,3.511,3.5114,0,0,0,0,0,0,0,0,3.468,3.4698,3.4848,3.485,3.4852,3.4944,3.493,3.5067,3.4947,3.491,3.4936,3.4931,3.503,3.5041,3.5076,3.523,3.5235,3.511,3.5116,3.512,3.5123,0,0,0,0,0,0,0,3.4671,3.4692,3.4905,3.4851,3.4853,3.484,3.4854,3.4956,3.4992,3.4913,3.491,3.4926,3.503,3.5067,3.5078,3.5237,3.511,3.5118,3.5124,3.5128,3.5512,3.5517,0,0,0,0,0,0,3.4661,3.4685,3.49,3.4909,3.4754,3.4849,3.4865,3.4919,3.4991,3.4998,3.493,3.4924,3.5053,3.5068,3.5083,3.5253,3.512,3.5129,3.5134,3.5508,3.5513,3.5518,0,0,0,0,0,0,3.4655,3.4681,3.4895,3.4796,3.4822,3.4859,3.492,3.4923,3.496,3.5004,3.5009,3.4961,3.505,3.507,3.5189,3.5257,3.5133,3.5141,3.5502,3.5509,3.5516,3.5595,0,0,0,0,0,0,3.4647,3.4679,3.4735,3.4798,3.4828,3.5001,3.4924,3.4929,3.4977,3.497,3.5035,3.5041,3.5048,3.5175,3.5198,3.5267,3.5148,3.5496,3.5505,3.5514,3.5586,3.5603,3.5618,0,0,0,0,0,3.4637,3.4751,3.4738,3.4764,3.4899,3.5005,3.5022,3.5029,3.4983,3.5038,3.5065,3.5039,3.5246,3.5188,3.5213,3.5286,3.5492,3.5503,3.5513,3.5579,3.56,3.5618,0,0,0,0,0,0,3.4695,3.476,3.4745,3.4884,3.494,3.4997,3.5068,3.5051,3.512,3.5111,3.5115,3.513,3.5252,3.5281,3.5215,3.5426,3.5362,3.5378,3.5403,3.5423,3.5439,3.5429,3.5156,0,0,0,0,0,3.4724,3.4806,3.4858,3.4975,3.5004,3.5031,3.5078,3.5078,3.5135,3.5158,3.5194,3.5249,3.5325,3.5376,3.5449,3.559,3.5602,3.5652,3.5668,3.5681,3.5695,3.5769,3.5792,3.5553,3.5553,3.5553,0,0,3.4785,3.483,3.4882,3.4988,3.5031,3.5114,3.5051,3.5142,3.5204,3.5171,3.5286,3.5314,3.5375,3.5505,3.5564,3.5533,3.5764,3.5695,3.5705,3.5712,3.5783,3.5805,3.5825,3.556,3.5559,3.5558,0,0,3.4938,3.4982,3.5084,3.5128,3.5193,3.5211,3.5235,3.5295,3.5313,3.5428,3.5405,3.5477,3.561,3.5654,3.5694,3.5862,3.584,3.5886,3.597,3.6042,3.6061,3.6078,3.6136,3.6158,3.5899,3.5899,3.59,0,3.5005,3.5132,3.5138,3.5231,3.5277,3.5252,3.5354,3.5396,3.5482,3.5514,3.5478,3.5643,3.5683,3.5822,3.5863,3.5896,3.5923,3.5878,3.6058,3.6075,3.6091,3.6147,3.6169,3.5904,3.5904,3.5903,3.5903,0,3.521,3.5298,3.5372,3.5456,3.5511,3.5608,3.5627,3.5681,3.5676,3.5697,3.5813,3.5859,3.5941,3.5974,3.597,3.6112,3.6091,3.6057,3.5992,3.6118,3.6171,3.6192,3.5912,3.591,3.5908,3.5907,0,0,3.5405,3.5491,3.5518,3.5555,3.5625,3.5692,3.5786,3.5867,3.5913,3.5972,3.6051,3.6163,3.6132,3.6177,3.6177,3.6241,3.637,3.6199,3.6201,3.6228,3.6527,3.6552,3.6577,3.6355,3.6359,3.6363,3.6522,0,3.5563,3.5732,3.5739,3.5892,3.5972,3.5948,3.603,3.6081,3.6102,3.6171,3.6194,3.6273,3.6226,3.6253,3.6315,3.6341,3.6429,3.633,3.6427,3.643,3.6412,3.6605,3.6632,3.6779,3.6542,3.6546,3.6548,0,3.5771,3.5838,3.5999,3.6056,3.6089,3.6164,3.6237,3.6304,3.636,3.6371,3.6421,3.6412,3.6506,3.6438,3.6568,3.65,3.654,3.6558,3.6564,3.6573,3.6497,3.6618,3.6827,3.6849,3.6581,3.6578,3.6576,0,3.5896,3.6026,3.6138,3.6171,3.624,3.6293,3.6324,3.6376,3.6423,3.6487,3.6517,3.6591,3.6631,3.6687,3.6697,3.6647,3.6826,3.676,3.6836,3.6836,3.6875,3.6873,3.7093,3.6902,3.6902,3.6901,3.6901,0,3.6072,3.6171,3.6195,3.6264,3.6374,3.638,3.6488,3.6515,3.6561,3.6633,3.6617,3.6685,3.6694,3.6764,3.6772,3.6878,3.6896,3.6906,3.6907,3.6907,3.6906,3.6933,3.6923,3.6907,3.6906,3.6905,3.6904,0,3.623,3.625,3.6371,3.6427,3.6443,3.6521,3.6568,3.6633,3.6652,3.6744,3.6765,3.6794,3.6876,3.6891,3.6987,3.6992,3.7117,3.7108,3.7099,3.7098,3.7173,3.7166,3.7419,3.7451,3.724,3.7242,3.7243,0,3.6341,3.6417,3.648,3.6528,3.6562,3.664,3.6688,3.6696,3.6747,3.6815,3.6872,3.6951,3.7016,3.7146,3.7175,3.7247,3.7239,3.7322,3.725,3.7247,3.7239,3.7235,3.7241,3.7336,3.7339,3.7341,3.7342,0,3.6535,3.6541,3.6612,3.6687,3.6745,3.6803,3.6859,3.6899,3.6914,3.6971,3.7055,3.7104,3.7202,3.7281,3.7353,3.7383,3.7365,3.7365,3.7386,3.7387,3.7379,3.7383,3.7136,3.7359,3.7357,3.7356,3.7355,3.7354,3.6672,3.6738,3.6793,3.6872,3.6914,3.6966,3.703,3.7057,3.7127,3.7208,3.7208,3.7299,3.735,3.7446,3.748,3.755,3.7523,3.7554,3.7562,3.757,3.7577,3.7368,3.7563,3.7562,3.7562,3.7562,3.7561,0,3.6865,3.6899,3.6972,3.705,3.7112,3.709,3.715,3.7202,3.7283,3.7334,3.7397,3.7492,3.7568,3.7602,3.7676,3.7725,3.7718,3.7744,3.774,3.7747,3.7597,3.757,3.7748,3.7748,3.7748,3.7748,3.7748,3.7748,3.6973,3.7082,3.7094,3.7224,3.7256,3.7346,3.7382,3.7429,3.7469,3.7576,3.7639,3.7661,3.7705,3.7781,3.7849,3.7857,3.7885,3.7914,3.7918,3.7777,3.7758,3.774,3.7715,3.792,3.7921,3.8063,3.8064,3.8065]}]]